[[{"header":{"parameterUnit":"m.s-1","parameterCategory":1,"la1":30.2991,"la2":30.254,"lo1":-89.0895,"lo2":-89.0444,"dy":0.0017,"dx":0.0017,"nx":28,"ny":28,"refTime":"2024-07-07T09:00:00:Z","depth":0,"parameterNumber":2,"parameterNumberName":"U-component_of_WINDS"},"data":[0,0,0,0,0,0,0,0,0,0,0,0,0,0,0,0,0,0,0,0,0,0,0,0,0,0,0,0,0,0,0,0,0,0,0,0,0,0,0,0,0,0,0,0,0,0,0,0,0,0,0,0,0,0,0,0,0,0,-0.1999,-0.1998,0,-0.1872,-0.1871,-0.1869,-0.1805,-0.1805,-0.1805,-0.1805,-0.1675,-0.1672,-0.1668,0,0,0,0,0,0,0,0,0,0,0,0,0,-0.2188,-0.2185,-0.2,-0.1998,-0.1996,-0.1873,-0.1871,-0.1869,-0.1805,-0.1805,-0.1805,-0.1805,-0.1676,-0.1672,-0.1668,0,0,0,0,0,0,0,0,0,0,0,0,0,-0.2088,-0.2184,-0.2,-0.195,-0.1944,-0.1873,-0.1871,-0.1869,-0.1805,-0.1805,-0.1805,-0.1805,-0.1677,-0.1672,-0.1667,-0.1637,0,0,-0.1652,-0.1649,0,0,0,0,0,0,0,0,-0.2094,-0.2081,-0.1959,-0.1953,-0.1946,-0.1855,-0.1889,-0.1791,-0.1805,-0.1858,-0.1805,-0.1805,-0.1735,-0.1725,-0.1701,-0.1631,-0.1625,-0.1651,-0.1648,-0.1646,-0.1644,0,0,0,0,0,0,0,-0.2101,-0.2086,-0.1949,-0.1957,-0.1949,-0.1934,-0.1919,-0.187,-0.1798,-0.1853,-0.1848,-0.1834,-0.1731,-0.1706,-0.1698,-0.1623,-0.1651,-0.1647,-0.1643,-0.1641,-0.1522,-0.1522,0,0,0,0,0,0,-0.2116,-0.2093,-0.1953,-0.1945,-0.2021,-0.193,-0.1914,-0.1884,-0.1799,-0.1785,-0.1834,-0.1832,-0.1715,-0.1704,-0.1693,-0.1652,-0.1646,-0.1641,-0.1638,-0.1522,-0.1522,-0.1522,0,0,0,0,0,0,-0.212,-0.2104,-0.1958,-0.2018,-0.1998,-0.1927,-0.1894,-0.1882,-0.1856,-0.1784,-0.1771,-0.1822,-0.1715,-0.17,-0.1651,-0.1646,-0.1639,-0.1634,-0.1522,-0.1522,-0.1522,-0.157,0,0,0,0,0,0,-0.2126,-0.2106,-0.2093,-0.2018,-0.1995,-0.1919,-0.1893,-0.1879,-0.1848,-0.1843,-0.1769,-0.1757,-0.1713,-0.1659,-0.1646,-0.1639,-0.163,-0.1522,-0.1522,-0.1522,-0.1568,-0.1571,-0.1574,0,0,0,0,0,-0.2133,-0.2112,-0.2093,-0.2077,-0.1978,-0.1919,-0.1906,-0.1856,-0.1848,-0.1835,-0.1788,-0.1759,-0.1649,-0.1655,-0.164,-0.1631,-0.1522,-0.1522,-0.1522,-0.1567,-0.157,-0.1573,0,0,0,0,0,0,-0.2188,-0.2101,-0.2079,-0.2033,-0.1984,-0.1908,-0.189,-0.1862,-0.1814,-0.1812,-0.1752,-0.1736,-0.1693,-0.1657,-0.1665,-0.1597,-0.1583,-0.158,-0.1622,-0.1625,-0.1628,-0.1637,-0.1626,0,0,0,0,0,-0.2195,-0.2155,-0.208,-0.2047,-0.2023,-0.1961,-0.1934,-0.19,-0.1847,-0.1826,-0.1776,-0.1725,-0.1679,-0.165,-0.1604,-0.1563,-0.1546,-0.1549,-0.1552,-0.1555,-0.1552,-0.1528,-0.1529,-0.1521,-0.1521,-0.1521,0,0,-0.2209,-0.2156,-0.2134,-0.2057,-0.2015,-0.1974,-0.1944,-0.1902,-0.1872,-0.1819,-0.177,-0.1732,-0.1672,-0.1627,-0.1605,-0.1596,-0.1551,-0.1554,-0.1557,-0.1553,-0.1528,-0.1529,-0.153,-0.1521,-0.1521,-0.1521,0,0,-0.2214,-0.217,-0.2137,-0.2096,-0.2033,-0.1991,-0.1984,-0.1912,-0.1885,-0.1835,-0.1795,-0.1758,-0.168,-0.1639,-0.1608,-0.1598,-0.1569,-0.1584,-0.1599,-0.1576,-0.1577,-0.1577,-0.1574,-0.1573,-0.1583,-0.1583,-0.1583,0,-0.2239,-0.2176,-0.2124,-0.2085,-0.2052,-0.2003,-0.197,-0.1932,-0.1857,-0.1836,-0.1827,-0.1728,-0.1684,-0.163,-0.1627,-0.1604,-0.1593,-0.1592,-0.1581,-0.1581,-0.158,-0.1576,-0.1575,-0.1585,-0.1585,-0.1584,-0.1584,0,-0.2211,-0.2168,-0.2149,-0.2078,-0.2043,-0.2008,-0.195,-0.1921,-0.1891,-0.1851,-0.1801,-0.1747,-0.1689,-0.1674,-0.1643,-0.1615,-0.1611,-0.1592,-0.1577,-0.1584,-0.158,-0.1578,-0.1588,-0.1587,-0.1587,-0.1586,0,0,-0.2246,-0.2147,-0.2141,-0.2109,-0.2036,-0.2002,-0.1964,-0.1908,-0.1884,-0.1835,-0.1802,-0.1737,-0.172,-0.1684,-0.1649,-0.163,-0.1626,-0.1613,-0.1611,-0.1618,-0.1591,-0.1606,-0.1605,-0.1607,-0.1606,-0.1606,-0.1596,0,-0.224,-0.217,-0.2122,-0.2071,-0.2031,-0.1984,-0.1951,-0.1903,-0.1865,-0.1826,-0.1784,-0.1739,-0.1719,-0.1698,-0.1676,-0.1631,-0.162,-0.1631,-0.1575,-0.1574,-0.1592,-0.1603,-0.1618,-0.1612,-0.1594,-0.1594,-0.1594,0,-0.2224,-0.2176,-0.2121,-0.2053,-0.2034,-0.2006,-0.195,-0.1913,-0.1858,-0.1832,-0.1794,-0.1758,-0.1716,-0.1705,-0.1647,-0.1656,-0.163,-0.1605,-0.1603,-0.1596,-0.1584,-0.1596,-0.1608,-0.1608,-0.159,-0.1591,-0.1591,0,-0.2256,-0.2178,-0.2134,-0.2108,-0.2027,-0.2008,-0.1974,-0.1919,-0.1888,-0.184,-0.182,-0.1768,-0.1739,-0.17,-0.1651,-0.1647,-0.1598,-0.1582,-0.1575,-0.1577,-0.1567,-0.1568,-0.1576,-0.1551,-0.1551,-0.1551,-0.1551,0,-0.2255,-0.2223,-0.2148,-0.2121,-0.2084,-0.203,-0.1995,-0.1957,-0.1908,-0.1874,-0.183,-0.1799,-0.1736,-0.1697,-0.1659,-0.1617,-0.1605,-0.1582,-0.1573,-0.1586,-0.1589,-0.1569,-0.1568,-0.1551,-0.1551,-0.1551,-0.1551,0,-0.2284,-0.2232,-0.2182,-0.211,-0.2092,-0.2068,-0.2006,-0.1979,-0.1939,-0.1896,-0.1883,-0.182,-0.1772,-0.172,-0.1654,-0.1628,-0.1589,-0.1575,-0.1607,-0.1602,-0.1598,-0.1599,-0.1592,-0.1589,-0.1567,-0.1567,-0.1568,0,-0.2287,-0.2261,-0.2187,-0.216,-0.2127,-0.2086,-0.2054,-0.2,-0.1969,-0.1905,-0.1886,-0.1835,-0.1791,-0.1717,-0.1665,-0.1615,-0.1599,-0.1601,-0.1592,-0.1606,-0.16,-0.1602,-0.1599,-0.1603,-0.1604,-0.1604,-0.1605,0,-0.2297,-0.2273,-0.2229,-0.2177,-0.2141,-0.2097,-0.2051,-0.2032,-0.197,-0.1937,-0.1888,-0.1854,-0.1787,-0.1737,-0.1681,-0.1646,-0.1615,-0.1608,-0.1604,-0.1617,-0.1638,-0.1627,-0.1615,-0.1608,-0.1608,-0.1608,-0.1607,-0.1607,-0.2313,-0.2288,-0.2232,-0.2185,-0.2145,-0.2104,-0.2075,-0.2032,-0.1989,-0.1931,-0.1902,-0.1853,-0.1799,-0.172,-0.1686,-0.1647,-0.1637,-0.1631,-0.163,-0.1629,-0.1633,-0.1644,-0.1637,-0.1636,-0.1636,-0.1636,-0.1636,0,-0.2321,-0.2283,-0.224,-0.2178,-0.2141,-0.2116,-0.2064,-0.2036,-0.1993,-0.1945,-0.1903,-0.1847,-0.1798,-0.1744,-0.1692,-0.1671,-0.1656,-0.1659,-0.166,-0.1653,-0.1644,-0.1653,-0.1673,-0.1673,-0.1673,-0.1673,-0.1673,-0.1673,-0.2321,-0.2278,-0.2247,-0.2184,-0.2146,-0.2098,-0.2071,-0.2033,-0.1995,-0.1934,-0.1893,-0.1858,-0.1807,-0.1752,-0.1706,-0.1691,-0.1674,-0.1682,-0.1663,-0.1656,-0.1653,-0.1651,-0.1659,-0.1679,-0.1679,-0.1675,-0.1675,-0.1675]},{"header":{"parameterUnit":"m.s-1","parameterCategory":1,"la1":30.2991,"la2":30.254,"lo1":-89.0895,"lo2":-89.0444,"dy":0.0017,"dx":0.0017,"nx":28,"ny":28,"refTime":"2024-07-07T09:00:00:Z","depth":0,"parameterNumber":3,"parameterNumberName":"V-component_of_WINDS"},"data":[0,0,0,0,0,0,0,0,0,0,0,0,0,0,0,0,0,0,0,0,0,0,0,0,0,0,0,0,0,0,0,0,0,0,0,0,0,0,0,0,0,0,0,0,0,0,0,0,0,0,0,0,0,0,0,0,0,0,4.562,4.5619,0,4.5568,4.5567,4.5567,4.5491,4.549,4.5489,4.5487,4.5434,4.5433,4.5433,0,0,0,0,0,0,0,0,0,0,0,0,0,4.5653,4.5653,4.562,4.5619,4.5618,4.5568,4.5567,4.5566,4.5492,4.549,4.5488,4.5487,4.5434,4.5433,4.5433,0,0,0,0,0,0,0,0,0,0,0,0,0,4.5624,4.5653,4.562,4.5575,4.557,4.5568,4.5567,4.5566,4.5492,4.549,4.5488,4.5486,4.5434,4.5433,4.5433,4.547,0,0,4.5432,4.5432,0,0,0,0,0,0,0,0,4.5626,4.5623,4.5582,4.5578,4.5573,4.5534,4.5559,4.5534,4.5492,4.5522,4.5487,4.5485,4.5469,4.5465,4.546,4.5468,4.5465,4.5432,4.5432,4.5432,4.5432,0,0,0,0,0,0,0,4.5628,4.5625,4.5599,4.5582,4.5576,4.5557,4.5551,4.5554,4.5507,4.5519,4.5513,4.5508,4.5466,4.546,4.5458,4.5464,4.5432,4.5432,4.5432,4.5431,4.55,4.5502,0,0,0,0,0,0,4.5637,4.5627,4.5601,4.5598,4.5595,4.5558,4.5551,4.5548,4.5506,4.5498,4.551,4.5505,4.5462,4.5458,4.5456,4.5496,4.5432,4.5431,4.5431,4.5498,4.55,4.5502,0,0,0,0,0,0,4.5638,4.5635,4.5603,4.5611,4.5605,4.556,4.5557,4.5549,4.5543,4.55,4.5491,4.5513,4.546,4.5456,4.5467,4.5493,4.5431,4.5431,4.5495,4.5498,4.5501,4.5577,0,0,0,0,0,0,4.5639,4.5636,4.565,4.5612,4.5605,4.5616,4.5559,4.5549,4.5543,4.5536,4.55,4.5493,4.5458,4.5468,4.5467,4.5491,4.5431,4.5493,4.5497,4.55,4.5572,4.5582,4.5591,0,0,0,0,0,4.564,4.5673,4.5651,4.5648,4.5621,4.5617,4.5613,4.5573,4.5545,4.5558,4.5531,4.5494,4.5491,4.547,4.5468,4.5493,4.5491,4.5496,4.55,4.5568,4.558,4.5591,0,0,0,0,0,0,4.5715,4.5667,4.5642,4.5663,4.5645,4.5605,4.562,4.5588,4.5577,4.5571,4.5521,4.5514,4.5531,4.5513,4.5491,4.5526,4.5485,4.5489,4.5537,4.5549,4.5558,4.5562,4.543,0,0,0,0,0,4.5734,4.5735,4.5693,4.5716,4.5708,4.5666,4.5663,4.5633,4.5612,4.5604,4.5577,4.5558,4.5552,4.5549,4.5542,4.5569,4.556,4.5585,4.5595,4.5603,4.5607,4.562,4.563,4.5517,4.5517,4.5517,0,0,4.5773,4.5747,4.5751,4.573,4.5712,4.5714,4.566,4.5664,4.5665,4.5604,4.5613,4.5593,4.5568,4.5587,4.5594,4.5572,4.5636,4.5609,4.5615,4.5615,4.5625,4.5636,4.5646,4.552,4.552,4.5519,0,0,4.5845,4.5826,4.5842,4.5826,4.58,4.5772,4.5776,4.5741,4.5725,4.5733,4.5688,4.5688,4.5679,4.5663,4.5654,4.5721,4.5686,4.572,4.5769,4.5782,4.5791,4.5799,4.5822,4.5831,4.5724,4.5724,4.5724,0,4.5897,4.5898,4.5855,4.5862,4.5854,4.58,4.5817,4.5803,4.5776,4.5772,4.5748,4.5736,4.5716,4.573,4.5746,4.5741,4.5744,4.5723,4.5793,4.5801,4.5807,4.5829,4.5838,4.5729,4.5728,4.5728,4.5727,0,4.5963,4.5964,4.5981,4.5956,4.595,4.5962,4.5921,4.592,4.5892,4.5866,4.5875,4.5848,4.5834,4.5836,4.5808,4.5846,4.5833,4.5802,4.576,4.5823,4.5842,4.585,4.5735,4.5733,4.5732,4.5731,0,0,4.608,4.6032,4.6038,4.6027,4.5994,4.5994,4.6004,4.599,4.5991,4.5974,4.598,4.5975,4.5945,4.5935,4.5905,4.5916,4.597,4.5883,4.5882,4.59,4.601,4.6034,4.6044,4.5947,4.5949,4.595,4.6012,0,4.6145,4.6158,4.612,4.6143,4.6143,4.6092,4.61,4.6081,4.6058,4.6055,4.6028,4.6025,4.5987,4.5981,4.599,4.5962,4.5992,4.5957,4.5952,4.5953,4.596,4.6054,4.6079,4.6139,4.602,4.6021,4.6022,0,4.6223,4.621,4.6233,4.62,4.6198,4.6207,4.6191,4.6189,4.6166,4.6148,4.6137,4.6102,4.6109,4.6069,4.6076,4.6054,4.6049,4.6036,4.6037,4.6035,4.5991,4.6054,4.6157,4.6166,4.6034,4.6033,4.6032,0,4.6305,4.6294,4.6307,4.6298,4.6259,4.6266,4.625,4.6226,4.622,4.6207,4.6203,4.619,4.6183,4.6174,4.6137,4.6111,4.6149,4.6106,4.6134,4.6135,4.6144,4.6143,4.6247,4.6142,4.6142,4.6142,4.6142,0,4.6382,4.6398,4.6343,4.6351,4.6367,4.6323,4.6341,4.6319,4.6298,4.63,4.6255,4.6259,4.6209,4.6207,4.6177,4.6188,4.6185,4.617,4.6162,4.6174,4.6176,4.6171,4.6165,4.6144,4.6144,4.6143,4.6143,0,4.6477,4.6441,4.6451,4.6413,4.6404,4.6418,4.6386,4.6391,4.6365,4.6368,4.6366,4.6325,4.632,4.6282,4.6268,4.6248,4.6269,4.6253,4.6277,4.6272,4.6302,4.6299,4.6405,4.6417,4.6305,4.6306,4.6307,0,4.6528,4.6539,4.6503,4.6501,4.6487,4.6486,4.648,4.6437,4.6433,4.6408,4.6416,4.6407,4.6398,4.6392,4.636,4.6349,4.6332,4.637,4.633,4.6342,4.6332,4.6332,4.6333,4.6379,4.638,4.6381,4.6382,0,4.6622,4.6604,4.6597,4.6585,4.6579,4.6567,4.6553,4.6554,4.6507,4.6504,4.6498,4.6491,4.6477,4.6469,4.6452,4.6435,4.6401,4.6395,4.6401,4.6413,4.6426,4.6419,4.63,4.6393,4.6392,4.6391,4.639,4.639,4.6696,4.6703,4.6679,4.6673,4.6658,4.6645,4.6648,4.6623,4.6617,4.6603,4.6578,4.6576,4.6552,4.6527,4.6513,4.651,4.649,4.6499,4.6501,4.6503,4.6509,4.6427,4.6507,4.6507,4.6506,4.6506,4.6506,0,4.6787,4.6769,4.6765,4.6746,4.6741,4.671,4.6692,4.669,4.6689,4.667,4.6662,4.6656,4.6647,4.6616,4.6604,4.6608,4.6592,4.6606,4.6605,4.6602,4.6528,4.6524,4.6619,4.6619,4.6619,4.6619,4.6619,4.6619,4.6834,4.6845,4.6825,4.6827,4.6809,4.6807,4.6799,4.6787,4.6772,4.6767,4.676,4.674,4.6715,4.6701,4.6692,4.6683,4.6681,4.67,4.6686,4.6618,4.6607,4.6596,4.6592,4.67,4.67,4.6759,4.676,4.676]}]]